Regional Weather Roundup
Issued by NWS

Home | Current Version | Previous Version | Text Only | Print | Product List | Glossary Off
Versions: 1 2 3 4 5 6 7 8 9 10 11 12 13 14 15 16 17 18 19 20 21 22 23 24 25 26 27 28 29 30 31 32 33 34 35 36 37 38 39 40 41 42 43 44 45 46

000
ASUS45 KTFX 280610
RWRMT
MONTANA REGIONAL WEATHER ROUNDUP
NATIONAL WEATHER SERVICE GREAT FALLS MT
1200 AM MDT THU MAY 28 2015

NOTE: "FAIR" INDICATES FEW OR NO CLOUDS BELOW 12000 FEET WITH NO
SIGNIFICANT WEATHER AND/OR OBSTRUCTIONS TO VISIBILITY.

MTZ001>007-043-280700-
WEST OF THE DIVIDE

CITY           SKY/WX    TMP DP  RH WIND       PRES   REMARKS
KALISPELL      PTCLDY    49  47  93 CALM      30.00S
MISSOULA       CLOUDY    55  46  71 SE3       30.04S
BUTTE          CLOUDY    47  40  76 CALM      30.09S
MULLAN PASS    PTCLDY    44  41  89 NW6       30.11R
DEER LODGE       N/A     48  45  87 CALM      30.11R
EUREKA           N/A     55  54  94 S3        30.02R
HAMILTON         N/A     52  46  82 S10       30.06S
LIBBY            N/A     54  46  76 CALM      30.01R
PLAINS           N/A     53  49  86 CALM      30.03S
$$

MTZ008-052>055-280700-
SOUTHWEST MONTANA

CITY           SKY/WX    TMP DP  RH WIND       PRES   REMARKS
BOZEMAN        CLOUDY    51  47  86 SE8       30.05R
DILLON         CLOUDY    47  42  83 CALM      30.07S
W YELLOWSTONE  LGT RAIN  41  39  93 S5        30.12F
THREE FORKS      N/A     53  29  40 CALM      30.04R
$$

MTZ009-010-012-014-046-048-049-054-280700-
EAST SLOPES AND CENTRAL MONTANA

CITY           SKY/WX    TMP DP  RH WIND       PRES   REMARKS
CUT BANK       CLOUDY    51  47  86 NW8       29.99S
GREAT FALLS    CLOUDY    55  46  71 CALM      29.99S
MALMSTROM AFB  CLOUDY    52  49  89 SW5       29.99S
HELENA         CLOUDY    56  47  71 CALM      30.02R
CONRAD           N/A     52  52 100 N3        30.01S
$$

MTZ011-013-016-021-045-047-050-051-280700-
NORTH CENTRAL MONTANA

CITY           SKY/WX    TMP DP  RH WIND       PRES   REMARKS
HAVRE          MOCLDY    54  52  93 N3        29.95R
LEWISTOWN      MOCLDY    51  47  86 SW7       30.00S
CHINOOK          N/A     55  54  94 SW5       29.94S
FORT BENTON      N/A     54  48  82 S3        29.99R
$$

MTZ017>020-022>027-061-062-280700-
NORTHEAST MONTANA

CITY           SKY/WX    TMP DP  RH WIND       PRES   REMARKS
GLASGOW        CLEAR     58  54  86 SE9       29.88F
JORDAN           N/A     54  51  90 CALM      29.92S
SIDNEY         MOCLDY    55  52  88 CALM      29.89F
WOLF POINT     CLOUDY    57  53  86 NE5       29.90R
MALTA            N/A     58  48  69 CALM      29.88F
PLENTYWOOD       N/A     55  54  94 NE6       29.92S
POPLAR           N/A     55  54  94 N3        29.90F
SCOBEY           N/A     56  50  80 E7        29.90F
$$

MTZ028>42-056>058-280700-
SOUTHCENTRAL AND SOUTHEAST MONTANA

CITY           SKY/WX    TMP DP  RH WIND       PRES   REMARKS
BAKER          CLEAR     52  50  93 S7        29.94F
BILLINGS       MOCLDY    54  48  80 SW7       29.98F
LIVINGSTON     CLOUDY    50  42  74 NW10      30.03R
MILES CITY     MOCLDY    54  54 100 CALM      29.93S
BIG TIMBER       N/A     50  43  76 SW5       30.03R
EKALAKA          N/A     53  49  86 SE5       29.94S
FORSYTH          N/A     55  55 100 CALM      29.94S
LAUREL           N/A     52  40  63 CALM      29.98S
ROUNDUP          N/A     53  47  80 CALM      29.89F
$$

REGIONAL REPORTS...DAKOTAS

CITY           SKY/WX    TMP DP  RH WIND       PRES   REMARKS
WILLISTON      CLOUDY    58  54  86 NE3       29.91S
MINOT          CLOUDY    60  56  86 SE10      29.94S
DICKINSON      CLOUDY    58  54  86 S9        29.90S
BEACH          FAIR      50  50 100 S3        29.93F
CROSBY         CLOUDY    57  57 100 E7        29.93F
WATFORD CITY   CLOUDY    54  54 100 CALM      29.90R
BISMARCK       CLOUDY    60  58  92 E9        29.93F
GRAND FORKS    CLOUDY    63  50  62 NE6       29.96F
FARGO          MOCLDY    65  55  70 E9        29.95F
BUFFALO SD       N/A     54  53  97 CALM      29.87F
RAPID CITY     PTCLDY    53  52  96 SE3       29.94F
$$

REGIONAL REPORTS...WYOMING/IDAHO/WASHINGTON

CITY           SKY/WX    TMP DP  RH WIND       PRES   REMARKS
GILLETTE       LGT RAIN  57  55  93 W13       30.01R
SHERIDAN       MOCLDY    54  51  90 SW7       30.00S
BUFFALO WY     CLOUDY    53  49  86 W6        30.02F
CODY           CLOUDY    52  48  87 S6        30.05R
YELLOWSTONE LA   N/A     38  36  92 CALM      30.16F
IDAHO FALLS    CLOUDY    50  46  86 E7        30.10R
SALMON         CLOUDY    50  46  87 SE6       30.07S
BOISE          CLEAR     59  45  59 CALM      30.01R
SPOKANE        PTCLDY    64  48  56 SW9       30.00R
$$

REGIONAL REPORTS...ALBERTA

CITY           SKY/WX    TMP DP  RH WIND       PRES   REMARKS
EDMONTON       LGT RAIN  54  45  71 NE15      30.01R
CALGARY        PTCLDY    59  43  55 N13       30.00R
LETHBRIDGE     MOCLDY    48  46  93 SW10      29.97R
MEDICINE HAT   PTCLDY    55  50  82 NE6       29.94R
$$

REGIONAL REPORTS...SASKATCHEWAN

CITY           SKY/WX    TMP DP  RH WIND       PRES   REMARKS
SWIFT CURRENT  CLEAR     54  46  76 VRB2      29.94F
REGINA         MOCLDY    59  50  72 E3        29.94F
SASKATOON      CLEAR     55  37  50 SE8       29.92F
$$



USA.gov is the U.S. government's official web portal to all federal, state and local government web resources and services.